Tracking 28915 objects as of 29-May-2024
HD Live streaming from Space Station
objects crossing your sky now

TIANHUI 1-04

Track TIANHUI 1-04 now!
10-day predictions


NORAD ID: 49049
Int'l Code: 2021-067A
Perigee: 501.7 km
Apogee: 504.4 km
Inclination: 97.4 °
Period: 94.5 minutes
Semi major axis: 6874 km
RCS: Unknown
Launch date: July 29, 2021
Source: People's Republic of China (PRC)
Launch site: Jiuquan Satellite Launch Center, China (JSC)
Your satellite tracking list
Your tracking list is empty




NASA's NSSDC Master Catalog

Two Line Element Set (TLE):
1 49049U 21067A   24150.53785718  .00007079  00000-0  30141-3 0  9993
2 49049  97.3619 225.8168 0001962  11.0379 349.0901 15.23283675157612
Source of the keplerian elements: AFSPC